Карточка аэропорта UNTT

Внимание!
Информация на этой странице в стадии наполнения.
Если вы не увидели какой-то информации, или заметили неточность - пожалуйста сообщите нам!
Спасибо!
Команда RU-STAFF
Название аэропортаБогашево
Название аэропорта (англ.)Bogashevo
Превышение597 ft. (182 m.)
Координаты56°22.2', 85°12.6'
Высота перехода1000m
Эшелон переходаQFE>=743mm:FL040; QFE<743mm:FL050
Коды ответчика5230-5247
Зона ОрВДНовосибирск РПИ (UNNT)
Данные METARUNTT 191100Z 19002MPS 9999 -SHRA BKN037CB 18/18 Q0997 R21/290250 NOSIG RMK QFE732
Проноз погоды (TAF)UNTT 190909Z 1909/1918 19003G08MPS 6000 -TSRA BKN020CB TEMPO 1909/1912 25006G16MPS 2500 -SHRA BKN011CB BECMG 1912/1914 9999 NSW TEMPO 1914/1918 23005G10MPS -TSRA
NOTAMshow/hide NOTAM
AWOS   TABLE

Информация о ВПП

ВПП Длина ВПП (м.) Покрытие Курс ВПП Частота ILS
032500Асфальтобетон25 
212500Асфальтобетон205110.3

Диспетчерские позиции




Спутниковое изображение